RH
51 54 58 62 60 61 60 61 59 53 47 42 44 38 37 37 39 52 53 63 63 59 63 55 48 53 60 54 52 53 48 48 44 42 53 55 53 55 56 53 50 50 42 44 39 39 43
61 66 68 69 66 63 70 69 68 63 64 55 47 43 40 32 32 50 56 68 69 73 62 63 56 64 61 53 50 45 48 46 46 49 53 56 52 54 61 60 62 60 63 55 52 47 50
67 70 70 72 72 73 74 74 73 70 70 67 60 51 40 34 30 34 52 76 83 83 79 75 73 66 63 56 53 54 50 49 46 48 54 56 56 64 68 66 66 71 63 58 51 54 56
73 74 75 79 85 83 79 77 77 82 83 78 76 63 47 40 33 37 45 68 78 76 78 72 80 73 64 59 56 58 57 49 43 47 53 60 58 67 73 66 66 67 63 66 64 62 65
80 82 83 76 83 85 89 88 86 87 86 89 86 77 61 48 37 49 70 64 86 70 87 88 81 76 70 61 61 61 46 48 50 51 59 66 67 70 75 76 72 64 70 74 86 75 69
87 88 86 84 83 85 89 92 96 94 94 93 87 81 69 48 39 44 62 89 93 82 83 86 77 74 79 74 66 49 46 48 47 59 64 73 80 80 74 80 73 73 78 74 95 80 69
95 93 91 86 84 91 95 96 93 93 94 90 90 84 81 58 45 50 60 65 95 85 87 75 77 77 71 68 60 56 49 49 49 60 66 77 81 78 76 75 73 73 70 78 95 95 72
96 94 93 89 86 87 90 94 93 90 88 81 67 76 75 57 37 38 59 73 73 65 73 75 78 79 80 74 64 53 48 52 52 60 72 81 78 70 81 88 73 70 71 78 84 87 77
96 95 92 94 88 82 87 96 98 95 83 83 88 95 96 79 66 84 84 78 60 72 77 73 74 81 78 74 65 54 49 53 49 57 72 79 71 78 83 77 76 74 78 84 93 90 83
98 98 98 83 59 72 87 95 92 90 95 98 97 98 95 80 69 75 92 96 83 76 73 71 76 81 77 76 64 50 49 49 45 60 73 68 71 79 81 83 81 84 75 85 93 98 95
97 99 68 54 74 89 94 94 93 94 98 98 94 96 86 83 82 67 70 83 62 66 78 84 82 84 80 64 50 48 51 49 60 72 73 73 74 84 87 97 92 82 73 89 82 83 95
96 78 47 66 85 88 94 96 96 98 98 87 89 93 79 70 71 65 68 67 60 80 86 88 87 78 62 57 57 53 45 48 58 73 78 75 79 84 90 92 94 90 81 82 84 86 97
80 43 61 67 82 83 90 94 96 91 88 85 85 94 75 65 70 68 59 73 75 83 82 88 80 66 60 61 71 57 48 63 73 93 79 76 84 85 90 96 94 94 81 95 95 91 96
43 44 62 52 66 86 85 89 90 80 72 75 85 86 83 72 67 70 68 82 87 67 87 87 70 57 59 62 66 57 63 77 76 79 74 83 91 89 93 93 94 94 95 97 77 88 94
38 55 66 53 62 66 70 82 82 70 75 79 87 84 79 64 53 64 66 81 92 93 85 80 62 58 57 60 65 64 73 77 75 75 86 80 94 89 97 95 92 81 81 70 71 69 71
43 66 76 66 68 75 83 85 84 83 86 87 90 89 79 63 54 60 65 88 96 92 84 69 69 63 58 62 67 78 75 72 77 78 84 95 97 94 96 96 87 86 69 75 69 73 76
44 64 78 84 71 69 82 77 81 80 86 84 81 70 64 66 51 60 72 99 98 89 76 71 65 59 56 62 76 72 71 74 81 88 91 93 98 95 94 88 87 80 68 58 56 60 61
45 58 69 88 82 87 86 80 83 84 76 75 75 70 58 57 57 66 91 96 97 79 72 68 68 66 70 76 74 73 77 80 83 89 95 91 87 97 85 78 75 73 66 57 56 54 56
39 50 57 84 80 90 91 88 76 66 71 76 76 74 67 64 68 85 97 97 84 75 79 75 71 67 72 76 77 77 82 82 81 83 83 79 80 90 78 72 72 66 60 53 53 58 62
32 38 48 67 76 78 79 82 71 54 55 57 64 69 71 82 86 89 96 88 71 72 80 76 66 63 70 73 72 75 74 78 77 75 68 64 69 76 79 79 75 69 57 50 55 59 48
30 26 38 57 63 60 59 63 61 48 41 45 55 70 80 88 88 91 83 79 61 71 78 72 62 63 69 70 71 73 71 72 68 60 58 57 66 66 58 58 61 64 61 53 53 49 55
21 23 44 48 47 47 46 47 47 46 50 65 75 76 83 86 90 91 76 64 59 68 74 70 64 59 60 66 71 67 63 57 56 55 55 57 65 60 54 50 50 53 55 54 52 48 48
19 33 46 42 42 37 34 30 38 50 53 66 78 86 87 87 81 81 64 53 58 62 68 63 63 57 58 61 61 60 56 53 51 53 47 47 53 60 57 49 49 50 49 48 48 49 47
20 42 46 43 39 37 36 35 42 48 59 70 78 83 75 65 61 58 59 49 53 59 62 61 60 58 57 58 57 55 54 54 52 49 51 51 49 51 56 50 57 47 45 45 45 45 45
26 42 44 41 38 39 39 48 52 53 57 68 70 62 52 50 48 52 51 48 51 52 58 60 60 60 58 53 53 52 52 51 50 52 53 51 50 52 57 48 43 42 43 43 43 42 42
34 40 38 41 41 40 42 45 56 56 62 64 67 56 43 38 39 43 44 45 45 50 53 56 54 60 60 57 54 55 51 53 51 52 50 48 47 47 49 51 45 39 38 39 37 37 38
36 43 41 35 37 39 42 45 51 57 59 59 58 45 34 31 35 39 39 39 44 46 49 49 51 54 53 53 53 50 47 45 47 47 47 48 46 48 45 47 36 33 35 34 36 39 35
32 42 45 38 39 40 42 46 49 52 51 49 43 35 32 30 32 35 37 40 42 45 47 47 51 50 49 53 49 44 38 39 39 39 41 40 43 44 43 45 42 31 34 32 32 34 34
27 39 43 46 41 44 46 47 50 49 51 50 46 41 32 32 30 33 36 38 40 43 47 47 50 49 49 50 43 42 40 37 37 36 37 40 36 41 37 36 32 29 32 31 31 31 33